Notices

What's New in latest Release from April 7th, 2021:

- Updated Glossary, including Speed of Maximum Gust, and Total Hourly Precipitation

- Updated national and regional climate services offices contacts and prices information

- Addition of station inventory lists for 1981-2010, 1971-2000, and 1961-1990 Normals.

If you haven't already, please take our survey and provide feedback about our website: https://eccc.sondage-survey.ca/f/LanguageSelection.aspx?s=442ca660-fcf1-47c0-95a9-59707d6fd709

Hourly Data Report for November 29, 2006

TORONTO CITY
ONTARIO

43°40'00.000" N
79°24'00.000" W
112.50 m
6158355
71508
XTO

Download Data

Hourly Data (November 2006)
Hourly Data Report for November 29, 2006
TIME
LST
Temp Definition
°C
Dew Point Definition
°C
Rel Hum Definition
%
Precip. Amount Definition
mm

Wind Dir Definition
10's deg

Wind Spd Definition
km/h
Visibility Definition
km
Stn Press Definition
kPa
Hmdx Definition


Wind Chill Definition


Weather Definition


00:00 6.1 6.1 100   LegendMM LegendMM   100.80     LegendNANA
01:00 6.1 6.1 100   LegendMM LegendMM   100.76     LegendNANA
02:00 6.1 6.1 100   LegendMM LegendMM   100.73     LegendNANA
03:00 6.0 6.0 100   LegendMM LegendMM   100.74     LegendNANA
04:00 6.2 6.2 100   LegendMM LegendMM   100.72     LegendNANA
05:00 6.5 6.5 100   LegendMM LegendMM   100.69     LegendNANA
06:00 7.2 7.2 100   LegendMM LegendMM   100.69     LegendNANA
07:00 7.7 7.7 100   LegendMM LegendMM   100.67     LegendNANA
08:00 8.1 8.0 99   LegendMM LegendMM   100.67     LegendNANA
09:00 8.8 8.3 97   LegendMM LegendMM   100.70     LegendNANA
10:00 9.7 8.8 94   LegendMM LegendMM   100.66     LegendNANA
11:00 11.6 9.6 88   LegendMM LegendMM   100.63     LegendNANA
12:00 12.4 9.8 84   LegendMM LegendMM   100.55     LegendNANA
13:00 12.3 9.5 83   LegendMM LegendMM   100.51     LegendNANA
14:00 12.0 10.0 88   LegendMM LegendMM   100.51     LegendNANA
15:00 13.3 11.8 91   LegendMM LegendMM   100.50     LegendNANA
16:00 13.6 12.0 90   LegendMM LegendMM   100.48     LegendNANA
17:00 13.8 12.0 89   LegendMM LegendMM   100.52     LegendNANA
18:00 13.8 12.3 91   LegendMM LegendMM   100.51     LegendNANA
19:00 13.9 12.5 91   LegendMM LegendMM   100.51     LegendNANA
20:00 13.6 12.2 91   LegendMM LegendMM   100.47     LegendNANA
21:00 13.5 12.4 93   LegendMM LegendMM   100.43     LegendNANA
22:00 14.0 12.9 93   LegendMM LegendMM   100.38     LegendNANA
23:00 14.0 12.9 93   LegendMM LegendMM   100.30     LegendNANA

Notes on Data Quality.

Legend

  • E = Estimated
  • M = Missing
  • NA = Not Available*
  • [empty] = Indicates an unobserved value
Date modified: